Pinedale, WY

2:44 PM MST on February 21, 2017 (GMT -0700)
Wenz

Weather History for KPNA - November, 2013

Change the Weather History Date:

Monday, November 25, 2013

  Actual Average (KBPI) Record (KBPI)
Temperature  
Mean Temperature 17 °F -  
Max Temperature 33 °F 30 °F 52 °F (1995)
Min Temperature 1 °F 5 °F -23 °F (2010)
Degree Days  
Heating Degree Days 48    
Moisture  
Dew Point 12 °F    
Average Humidity 76    
Maximum Humidity 92    
Minimum Humidity 60    
Precipitation  
Precipitation 0.00 in - - ()
Sea Level Pressure  
Sea Level Pressure 30.27 in    
Wind  
Wind Speed 4 mph (NNW)    
Max Wind Speed 23 mph    
Max Gust Speed 29 mph    
Visibility 10 miles    
Events      
Averages and records for this station are not official NWS values.
T = Trace of Precipitation, MM = Missing Value Source: NWS Daily Summary

Daily Weather History Graph

Daily Weather History Graph

Search for Another Location

Airport or City:

Trip Planner

Search our weather history database for the weather conditions in past years. The results will help you decide how hot, cold, wet, or windy it might be!

Date:

Astronomy

Nov. 25, 2013 Rise Set
Actual Time 7:23 AM MST 4:48 PM MST
Civil Twilight 6:52 AM MST 5:19 PM MST
Nautical Twilight 6:17 AM MST 5:54 PM MST
Astronomical Twilight 5:43 AM MST 6:28 PM MST
Moon No Moon Rise 12:36 PM MST (11/25)
Length of Visible Light 10h 27m
Length of Day
9h 24m
Waning Gibbous, 50% of the Moon is Illuminated
Nov 25
Waning Gibbous
Nov 25
Last Quarter
Dec 2
New
Dec 9
First Quarter
Dec 17
Full

Hourly Weather History & Observations

Time (MST) Temp. Windchill Dew Point Humidity Pressure Visibility Wind Dir Wind Speed Gust Speed Precip Events Conditions
12:15 AM 3.2 °F - 1.4 °F 92% 30.18 in 10.0 mi Calm Calm - N/A   Clear
12:35 AM 3.2 °F - 1.4 °F 92% 30.18 in 10.0 mi Calm Calm - N/A   Clear
12:55 AM 3.2 °F -4.2 °F -0.4 °F 85% 30.19 in 10.0 mi WNW 3.5 mph - N/A   Clear
1:15 AM 1.4 °F - -0.4 °F 92% 30.19 in 10.0 mi Calm Calm - N/A   Clear
1:35 AM 3.2 °F - 1.4 °F 92% 30.19 in 10.0 mi Calm Calm - N/A   Clear
1:55 AM 3.2 °F -4.2 °F 1.4 °F 92% 30.19 in 10.0 mi WNW 3.5 mph - N/A   Clear
2:15 AM 3.2 °F -6.2 °F 1.4 °F 92% 30.20 in 10.0 mi WNW 4.6 mph - N/A   Clear
2:35 AM 3.2 °F -9.1 °F 1.4 °F 92% 30.21 in 10.0 mi NNW 6.9 mph - N/A   Clear
2:55 AM 3.2 °F -4.2 °F 1.4 °F 92% 30.21 in 10.0 mi WNW 3.5 mph - N/A   Clear
3:15 AM 3.2 °F -11.3 °F 1.4 °F 92% 30.21 in 10.0 mi WNW 9.2 mph - N/A   Clear
3:35 AM 3.2 °F -7.8 °F 1.4 °F 92% 30.21 in 10.0 mi WNW 5.8 mph - N/A   Clear
3:55 AM 5.0 °F -2.1 °F 3.2 °F 92% 30.21 in 10.0 mi NW 3.5 mph - N/A   Clear
4:15 AM 3.2 °F -6.2 °F 1.4 °F 92% 30.21 in 10.0 mi WNW 4.6 mph - N/A   Clear
4:35 AM 3.2 °F -6.2 °F -0.4 °F 85% 30.22 in 10.0 mi NNW 4.6 mph - N/A   Clear
4:55 AM 3.2 °F -4.2 °F 1.4 °F 92% 30.22 in 10.0 mi West 3.5 mph - N/A   Clear
5:15 AM 3.2 °F - 1.4 °F 92% 30.22 in 10.0 mi Calm Calm - N/A   Clear
5:35 AM 3.2 °F -4.2 °F -0.4 °F 85% 30.23 in 10.0 mi NW 3.5 mph - N/A   Clear
5:55 AM 3.2 °F - -0.4 °F 85% 30.24 in 10.0 mi Calm Calm - N/A   Clear
6:15 AM 3.2 °F - -0.4 °F 85% 30.24 in 10.0 mi Calm Calm - N/A   Clear
6:35 AM 3.2 °F - -0.4 °F 85% 30.25 in 10.0 mi Calm Calm - N/A   Clear
6:55 AM 1.4 °F -8.3 °F -0.4 °F 92% 30.25 in 10.0 mi WSW 4.6 mph - N/A   Clear
7:15 AM 1.4 °F -6.2 °F -0.4 °F 92% 30.26 in 10.0 mi West 3.5 mph - N/A   Clear
7:35 AM 1.4 °F -8.3 °F -0.4 °F 92% 30.27 in 10.0 mi NW 4.6 mph - N/A   Clear
7:55 AM 3.2 °F - 1.4 °F 92% 30.27 in 10.0 mi Calm Calm - N/A   Clear
8:15 AM 5.0 °F -2.1 °F 3.2 °F 92% 30.27 in 10.0 mi West 3.5 mph - N/A   Clear
8:35 AM 8.6 °F 0.1 °F 5.0 °F 85% 30.28 in 10.0 mi NW 4.6 mph - N/A   Clear
8:55 AM 10.4 °F 2.2 °F 5.0 °F 79% 30.29 in 10.0 mi WNW 4.6 mph - N/A   Clear
9:15 AM 14.0 °F 8.2 °F 8.6 °F 79% 30.29 in 10.0 mi WNW 3.5 mph - N/A   Clear
9:35 AM 15.8 °F - 10.4 °F 79% 30.29 in 10.0 mi Calm Calm - N/A   Clear
9:55 AM 19.4 °F - 12.2 °F 74% 30.29 in 10.0 mi Calm Calm - N/A   Clear
10:15 AM 23.0 °F - 12.2 °F 63% 30.29 in 10.0 mi Calm Calm - N/A   Clear
10:35 AM 24.8 °F 20.5 °F 14.0 °F 64% 30.29 in 10.0 mi East 3.5 mph - N/A   Clear
10:55 AM 26.6 °F 21.2 °F 17.6 °F 69% 30.29 in 10.0 mi East 4.6 mph - N/A   Clear
11:15 AM 24.8 °F 19.1 °F 17.6 °F 74% 30.29 in 10.0 mi ESE 4.6 mph - N/A   Clear
11:35 AM 26.6 °F 21.2 °F 17.6 °F 69% 30.29 in 10.0 mi East 4.6 mph - N/A   Clear
11:55 AM 28.4 °F 22.2 °F 17.6 °F 64% 30.29 in 10.0 mi East 5.8 mph - N/A   Clear
12:15 PM 28.4 °F 21.2 °F 19.4 °F 69% 30.28 in 10.0 mi East 6.9 mph - N/A   Clear
12:35 PM 28.4 °F 21.2 °F 19.4 °F 69% 30.28 in 10.0 mi East 6.9 mph - N/A   Clear
12:55 PM 30.2 °F 24.3 °F 21.2 °F 69% 30.28 in 10.0 mi East 5.8 mph - N/A   Clear
1:15 PM 30.2 °F 25.4 °F 21.2 °F 69% 30.27 in 10.0 mi East 4.6 mph - N/A   Clear
1:35 PM 32.0 °F 28.7 °F 21.2 °F 64% 30.27 in 10.0 mi East 3.5 mph - N/A   Clear
1:55 PM 32.0 °F 28.7 °F 21.2 °F 64% 30.26 in 10.0 mi ENE 3.5 mph - N/A   Clear
2:15 PM 32.0 °F 28.7 °F 21.2 °F 64% 30.26 in 10.0 mi ENE 3.5 mph - N/A   Clear
2:35 PM 33.8 °F 29.6 °F 21.2 °F 60% 30.26 in 10.0 mi East 4.6 mph - N/A   Clear
2:55 PM 32.0 °F - 21.2 °F 64% 30.27 in 10.0 mi Calm Calm - N/A   Clear
3:15 PM 32.0 °F 27.5 °F 21.2 °F 64% 30.27 in 10.0 mi ESE 4.6 mph - N/A   Clear
3:35 PM 32.0 °F 28.7 °F 21.2 °F 64% 30.27 in 10.0 mi ESE 3.5 mph - N/A   Clear
3:55 PM 30.2 °F 21.9 °F 21.2 °F 69% 30.27 in 10.0 mi ESE 9.2 mph - N/A   Clear
4:15 PM 30.2 °F 24.3 °F 21.2 °F 69% 30.27 in 10.0 mi East 5.8 mph - N/A   Clear
4:35 PM 28.4 °F 20.4 °F 19.4 °F 69% 30.27 in 10.0 mi East 8.1 mph - N/A   Clear
4:55 PM 30.2 °F - 19.4 °F 64% 30.27 in 10.0 mi Calm Calm - N/A   Clear
5:15 PM 30.2 °F 19.3 °F 21.2 °F 69% 30.27 in 10.0 mi WNW 15.0 mph 19.6 mph N/A   Clear
5:35 PM 30.2 °F 18.1 °F 21.2 °F 69% 30.28 in 10.0 mi WNW 18.4 mph - N/A   Clear
5:55 PM 30.2 °F 18.1 °F 21.2 °F 69% 30.28 in 10.0 mi NW 18.4 mph - N/A   Clear
6:15 PM 30.2 °F 18.1 °F 21.2 °F 69% 30.28 in 10.0 mi WNW 18.4 mph 24.2 mph N/A   Clear
6:35 PM 30.2 °F 18.1 °F 21.2 °F 69% 30.28 in 10.0 mi NW 18.4 mph - N/A   Clear
6:55 PM 32.0 °F 19.8 °F 21.2 °F 64% 30.29 in 10.0 mi NW 20.7 mph - N/A   Clear
7:15 PM 32.0 °F 20.1 °F 21.2 °F 64% 30.29 in 10.0 mi NW 19.6 mph 24.2 mph N/A   Clear
7:35 PM 32.0 °F 19.2 °F 21.2 °F 64% 30.29 in 10.0 mi WNW 23.0 mph - N/A   Clear
7:55 PM 32.0 °F 19.8 °F 21.2 °F 64% 30.30 in 10.0 mi WNW 20.7 mph 28.8 mph N/A   Clear
8:15 PM 28.4 °F 19.7 °F 19.4 °F 69% 30.31 in 10.0 mi North 9.2 mph - N/A   Clear
8:35 PM 28.4 °F 20.4 °F 19.4 °F 69% 30.32 in 10.0 mi North 8.1 mph - N/A   Clear
8:55 PM 28.4 °F 19.7 °F 19.4 °F 69% 30.32 in 10.0 mi NNW 9.2 mph - N/A   Scattered Clouds
9:15 PM 28.4 °F 19.7 °F 19.4 °F 69% 30.32 in 10.0 mi North 9.2 mph - N/A   Scattered Clouds
9:35 PM 28.4 °F 19.1 °F 19.4 °F 69% 30.32 in 10.0 mi North 10.4 mph - N/A   Clear
9:55 PM 30.2 °F 21.3 °F 19.4 °F 64% 30.32 in 10.0 mi North 10.4 mph - N/A   Clear
10:15 PM 30.2 °F 20.8 °F 19.4 °F 64% 30.33 in 10.0 mi North 11.5 mph 17.3 mph N/A   Scattered Clouds
10:35 PM 30.2 °F 19.8 °F 19.4 °F 64% 30.33 in 10.0 mi North 13.8 mph - N/A   Scattered Clouds
10:55 PM 30.2 °F 25.4 °F 19.4 °F 64% 30.35 in 10.0 mi NNW 4.6 mph - N/A   Clear
11:15 PM 28.4 °F - 19.4 °F 69% 30.35 in 10.0 mi Calm Calm - N/A   Clear
11:35 PM 28.4 °F - 19.4 °F 69% 30.36 in 10.0 mi Calm Calm - N/A   Clear
11:55 PM 26.6 °F - 17.6 °F 69% 30.36 in 10.0 mi Calm Calm - N/A   Clear